Find Local Weather

World > North America > United States > Massachusetts

Boston, Massachusetts Regional Weather

Lat: 42.32N, Lon: 71.07W
Wx Zone: MAZ015
Warning FLW WEATHER ALERT - (More Info. Click Here) Warning
Feedback
Expires:201812190900;;016227
ASUS41 KOKX 190814
RWROKX

Regional Weather Roundup
National Weather Service New York NY
300 AM EST WED DEC 19 2018

Note: "FAIR" indicates few or no clouds below 12,000 feet with no
significant weather and/or obstructions to visibility.


CTZ002-004>006-009-010-012-RIZ004-006-007-MAZ004-011-015-190900-
Southern New England

 In CT
  
CITY           SKY/WX    TMP DP  RH WIND       PRES   REMARKS
Bradley Intl   FAIR      19  11  70 CALM      30.10S                  
Hartford       FAIR      21  11  65 CALM      30.11F                  
Danbury        FAIR      20  10  65 W5        30.12R WCI  13          
Wtrbury/Oxford FAIR      19  13  77 W3        30.07S                  
Norwalk Harbor   N/A    N/A N/A N/A W8          N/A                   
Bridgeport     FAIR      24  12  60 CALM      30.13S                  
Meriden        FAIR      17  12  80 CALM      30.11S                  
New Haven      FAIR      24  13  62 NW5       30.11F WCI  18          
Chester        FAIR      19  12  73 CALM      30.08S                  
Groton         FAIR      22  13  68 W5        30.10S WCI  16          
Willimantic    FAIR      21  11  65 NW8       30.09S WCI  11          

 In RI
  
CITY           SKY/WX    TMP DP  RH WIND       PRES   REMARKS
Providence     FAIR      21  11  65 W5        30.08R WCI  15          
Block Island   FAIR      25  15  66 NW5       30.10R WCI  19          
Westerly       FAIR      24  13  62 CALM      30.10S                  
 
In MA
  
CITY           SKY/WX    TMP DP  RH WIND       PRES   REMARKS
Boston         MOCLDY    24  10  55 W14       30.06R WCI  12          
Worcester      FAIR      16   8  71 NW12      30.00R WCI   3          
Westfield      FAIR      21  10  62 CALM      30.09S                  
Provincetown   FAIR      27  19  72 NW18G24   30.05R WCI  14          
Nantucket      FAIR      25  14  63 NW9       30.06R WCI  15          
$$


SKY/WX - Weather  TMP - Temperature  DP - Dew Point  RH - Relative Humidity
WIND - Wind Direction/Speed PRES - Barometric Pressure